Regional Weather Roundup
Issued by NWS

Home | Current Version | Previous Version | Graphics & Text | Print | Product List | Glossary On
Versions: 1 2 3 4 5 6 7 8 9 10 11 12 13 14 15 16 17 18 19 20 21 22 23 24 25 26 27 28 29 30 31 32 33 34 35 36 37 38 39 40 41 42 43 44 45 46 47 48 49 50
000
ASUS43 KIND 040159
RWRIN

WEATHER ROUNDUP FOR INDIANA
NATIONAL WEATHER SERVICE INDIANAPOLIS IN
1000 PM EDT SUN MAY 03 2015

NOTE: "FAIR" INDICATES FEW OR NO CLOUDS BELOW 12,000 FEET WITH NO
SIGNIFICANT WEATHER AND/OR OBSTRUCTIONS TO VISIBILITY.

* - STATION DOES NOT REPORT WEATHER SUCH AS PRECIPITATION OR FOG.

+ - STATION NOT QUALITY CONTROLLED BY THE NATIONAL WEATHER SERVICE.
    USE DATA WITH CAUTION...ESPECIALLY DEWPOINT AND RELATIVE
    HUMIDITY OBSERVATIONS.

INZ001>003-010>013-019-020-040300-
NORTHWEST INDIANA

CITY           SKY/WX    TMP DP  RH WIND       PRES   REMARKS
GARY /AIRPORT/ LGT RAIN  61 N/A N/A E7        29.96R

$$

LMZ046-743>745-040300-
SOUTHERN LAKE MICHIGAN

STATION/POSITION TIME  TEMP    WIND        PRES    WAVE
                       AIR SEA DIR/SP/G            HT
                 (UTC) (F)     (DEG/KT/KT) (MB)    (FT)
BURNS HARBOR     0100   71     220/  3/  6 1015.2R
MICHIGAN CITY    0100   75     170/ 12/ 15   N/A
5NW MICH CITY    0100   54 51  330/ 10/ 12   N/A     1

$$

INZ004-005-014>016-021>024-040300-
NORTH CENTRAL INDIANA

CITY           SKY/WX    TMP DP  RH WIND       PRES   REMARKS
GOSHEN         CLOUDY    71  47  42 S8        30.00R
SOUTH BEND     CLOUDY    72  46  39 S8        29.98S

$$

INZ006>009-017-018-025>027-040300-
NORTHEAST INDIANA

CITY           SKY/WX    TMP DP  RH WIND       PRES   REMARKS
ANGOLA *+      CLEAR     70  48  46 S7        30.02R
FORT WAYNE     MOCLDY    65  50  58 S7        30.04R

$$

INZ028-029-035-036-043>045-051>053-040300-
WEST CENTRAL INDIANA

CITY           SKY/WX    TMP DP  RH WIND       PRES   REMARKS
CRAWFORDSVL +  PTCLDY    62  41  45 S6        30.03R
GREENCASTLE +  PTCLDY    64  41  42 S5        30.05R
LAFAYETTE      MOCLDY    68  45  43 S5        30.01R
TERRE HAUTE    FAIR      68  48  48 S8        30.03R

$$

INZ030>032-037>040-046>048-054>057-064-065-040300-
CENTRAL INDIANA

CITY           SKY/WX    TMP DP  RH WIND       PRES   REMARKS
GREENWOOD *+   MOCLDY    66  45  45 S5        30.07R
INDIANAPOLIS   MOCLDY    69  44  40 S9        30.04R
-EAGLE CREEK   MOCLDY    69  45  41 S3        30.05R
MT COMFORT *+  PTCLDY    64  36  34 S3        30.07R
SHELBYVILLE    MOCLDY    68  50  52 S8        30.06R

$$

INZ033-034-041-042-049-050-058-059-040300-
EAST CENTRAL INDIANA

CITY           SKY/WX    TMP DP  RH WIND       PRES   REMARKS
MUNCIE         PTCLDY    70  47  43 S8        30.05R

$$

INZ060-061-067>069-081>083-085>088-040300-
SOUTHWEST INDIANA

CITY           SKY/WX    TMP DP  RH WIND       PRES   REMARKS
EVANSVILLE     CLEAR     70  50  49 S5        30.06R
HUNTINGBURG *+ CLEAR     68  48  49 S6        30.07R

$$

INZ062-063-066-070>080-084-089>092-040300-
SOUTH CENTRAL AND SOUTHEAST INDIANA

CITY           SKY/WX    TMP DP  RH WIND       PRES   REMARKS
BLOOMINGTON    PTCLDY    68  47  46 S6        30.06R
MADISON *+     MOCLDY    63  46  55 CALM      30.10S
SEYMOUR +      MOCLDY    66  50  55 S5        30.06R

$$




USA.gov is the U.S. government's official web portal to all federal, state and local government web resources and services.